Home   Weather   Ingolstadt   Past weeks

Flag for Germany Past Weather in Ingolstadt, Bavaria, Germany — Yesterday and Last 2 Weeks

Now
39 °F

Chilly.


Feels Like: 37 °F
Forecast: 33 / 53 °F
Wind: 3 mph from Northeast

Location: Ingolstadt Airport

Current Time: Apr 28, 2017 at 4:44:37 am

Latest Report: Apr 28, 2017 at 3:20 am


Visibility: 4 mi

Pressure: 29.86 "Hg

Humidity: 93%

Dew Point: 37 °F

Location of IngolstadtLocation

Past Weather in Ingolstadt — Graph

°F

Ingolstadt Temperature Yesterday

Maximum temperature yesterday: 41 °F (at 1:20 pm)
Minimum temperature yesterday: 37 °F (at 7:43 am)
Average temperature yesterday: 40 °F

High & Low Weather Summary for the Past Weeks

 TemperatureHumidityPressure
High61 °F (Apr 24, 6:20 pm)93% (Apr 17, 12:20 am)30.51 "Hg (Apr 17, 12:20 am)
Low25 °F (Apr 21, 5:20 am)31% (Apr 24, 4:20 pm)29.71 "Hg (Apr 25, 5:20 am)
Average43 °F71%30.08 "Hg
* Reported Apr 13 2:20 am — Apr 28 2:20 am, Ingolstadt, Weather by CustomWeather, © 2017

Note: Actual official high and low records may vary slightly from our data, if they occured in-between our weather recording intervals... More about our weather records

Advertising

Ingolstadt Weather History for the Previous 24 Hours

Scroll right to see more
 ConditionsComfort  
Time TempWeatherWind HumidityBarometerVisibility
2:20 am
Fri, Apr 28
37 °FChilly.2 mph93%29.89 "Hg4 mi
1:20 am37 °FChilly.9 mph93%29.89 "Hg4 mi
12:20 am39 °FChilly.3 mph87%29.92 "Hg4 mi
11:20 pm
Thu, Apr 27
39 °FChilly.5 mph87%29.92 "Hg4 mi
10:20 pm39 °FChilly.5 mph93%29.92 "Hg3 mi
9:20 pm39 °FChilly.5 mph93%29.95 "Hg4 mi
8:29 pm39 °FLight rain. Mostly cloudy.3 mph93%29.92 "Hg6 mi
7:20 pm41 °FLight rain. Partly sunny.3 mph87%29.92 "HgN/A
6:20 pm41 °FLight rain. More clouds than sun.5 mph87%29.95 "HgN/A
5:20 pm41 °FLight rain. Partly sunny.5 mph87%29.95 "HgN/A
5:00 pm41 °FLight rain. Partly sunny.3 mph87%29.95 "HgN/A
4:20 pm41 °FLight rain. Partly sunny.6 mph87%29.95 "HgN/A
3:20 pm41 °FRain. Mostly cloudy.5 mph87%29.95 "HgN/A
2:47 pm41 °FLight rain. Mostly cloudy.5 mph87%29.95 "HgN/A
2:20 pm41 °FLight rain. Broken clouds.6 mph87%29.95 "HgN/A
1:20 pm41 °FLight rain. Partly sunny.5 mph81%29.95 "HgN/A
12:20 pm39 °FLight rain. More clouds than sun.6 mph87%29.95 "HgN/A
11:20 am39 °FLight rain. Mostly cloudy.3 mph87%29.95 "HgN/A
10:52 am39 °FLight rain. Mostly cloudy.5 mph87%29.95 "HgN/A
10:20 am37 °FRain. Mostly cloudy.5 mph93%29.92 "Hg4 mi
9:20 am37 °FRain. Mostly cloudy.5 mph93%29.95 "Hg4 mi
8:20 am37 °FLight rain. Mostly cloudy.5 mph93%29.89 "Hg4 mi
7:43 am37 °FLight rain. Mostly cloudy.3 mph93%29.92 "Hg5 mi
7:20 am39 °FLight rain. More clouds than sun.5 mph87%29.92 "Hg4 mi
6:53 am39 °FLight rain. More clouds than sun.3 mph93%29.89 "Hg6 mi
6:20 am39 °FLight rain. Partly sunny.3 mph87%29.89 "Hg6 mi
5:20 am39 °FLight rain. Passing clouds.5 mph93%29.89 "Hg6 mi
4:20 am39 °FChilly.3 mph93%29.86 "Hg4 mi
Weather by CustomWeather, © 2017

See weather overviewHow to use our weather pages